Montreal/Mirabel, Ontario

7:01 AM EST on January 23, 2017 (GMT -0500)
Montreal International (Mirabel)

Weather History for CYMX - December, 2012

Change the Weather History Date:

Monday, December 31, 2012

  Actual Average Record
Temperature  
Mean Temperature 16 °F -  
Max Temperature 26 °F 21 °F 46 °F (2004)
Min Temperature 6 °F 7 °F -18 °F (1998)
Degree Days  
Heating Degree Days 49    
Moisture  
Dew Point 13 °F    
Average Humidity 87    
Maximum Humidity 93    
Minimum Humidity 79    
Precipitation  
Precipitation 0.00 in - - ()
Sea Level Pressure  
Sea Level Pressure 29.89 in    
Wind  
Wind Speed 3 mph ()    
Max Wind Speed 10 mph    
Max Gust Speed -    
Visibility 7.1 miles    
Events Snow    
Averages and records for this station are not official NWS values.
T = Trace of Precipitation, MM = Missing Value Source: Averaged Metar Reports

Daily Weather History Graph

Daily Weather History Graph

Search for Another Location

Airport or City:

Trip Planner

Search our weather history database for the weather conditions in past years. The results will help you decide how hot, cold, wet, or windy it might be!

Date:

Astronomy

Dec. 31, 2012 Rise Set
Actual Time 7:36 AM EST 4:22 PM EST
Civil Twilight 7:02 AM EST 4:56 PM EST
Nautical Twilight 6:25 AM EST 5:33 PM EST
Astronomical Twilight 5:48 AM EST 6:10 PM EST
Moon 8:01 PM EST (12/31) 9:06 AM EST (12/31)
Length of Visible Light 9h 53m
Length of Day
8h 45m
Waning Gibbous, 90% of the Moon is Illuminated
Dec 31
Waning Gibbous
Jan 4
Last Quarter
Jan 11
New
Jan 18
First Quarter
Jan 26
Full

Hourly Weather History & Observations

Time (EST) Temp. Windchill Dew Point Humidity Pressure Visibility Wind Dir Wind Speed Gust Speed Precip Events Conditions
12:00 AM 8.6 °F -1.3 °F 3.2 °F 79% 30.12 in 25.0 mi West 5.8 mph - N/A   Overcast
1:00 AM 8.6 °F -1.3 °F 5.0 °F 85% 30.11 in 25.0 mi West 5.8 mph - N/A   Overcast
2:00 AM 8.6 °F 0.1 °F 5.0 °F 85% 30.09 in 25.0 mi West 4.6 mph - N/A   Mostly Cloudy
3:00 AM 6.8 °F - 1.4 °F 79% 30.08 in 25.0 mi Calm Calm - N/A   Mostly Cloudy
4:00 AM 8.6 °F 2.0 °F 5.0 °F 85% 30.06 in 25.0 mi WSW 3.5 mph - N/A   Overcast
5:00 AM 10.4 °F 4.0 °F 6.8 °F 85% 30.04 in 25.0 mi SW 3.5 mph - N/A   Overcast
6:00 AM 8.6 °F 2.0 °F 5.0 °F 85% 30.04 in 25.0 mi West 3.5 mph - N/A   Overcast
7:00 AM 8.6 °F - 6.8 °F 92% 30.02 in 15.0 mi WSW 2.3 mph - N/A Snow Light Snow Showers
8:00 AM 10.4 °F - 6.8 °F 85% 30.01 in 4.0 mi Calm Calm - N/A Snow Light Snow Showers
9:00 AM 12.2 °F - 8.6 °F 85% 30.00 in 3.0 mi Calm Calm - N/A Snow Light Snow Showers
10:00 AM 14.0 °F 6.5 °F 10.4 °F 86% 29.98 in 4.0 mi South 4.6 mph - N/A Snow Light Snow Showers
11:00 AM 14.0 °F - 12.2 °F 93% 29.95 in 6.0 mi Calm Calm - N/A Snow Light Snow Showers
12:00 PM 15.8 °F - 12.2 °F 86% 29.91 in 10.0 mi Calm Calm - N/A Snow Light Snow
1:00 PM 17.6 °F - 12.2 °F 79% 29.86 in 12.0 mi Calm Calm - N/A Snow Light Snow
2:00 PM 19.4 °F - 15.8 °F 86% 29.84 in 6.0 mi Calm Calm - N/A Snow Light Snow
3:00 PM 19.4 °F - 15.8 °F 86% 29.82 in 10.0 mi Calm Calm - N/A Snow Light Snow
3:53 PM 21.2 °F 16.4 °F 17.6 °F 86% 29.80 in 10.0 mi SSE 3.5 mph - N/A   Overcast
4:00 PM 21.2 °F 16.4 °F 17.6 °F 86% 29.79 in 10.0 mi SSE 3.5 mph - N/A   Overcast
5:00 PM 21.2 °F - 17.6 °F 86% 29.76 in 10.0 mi Calm Calm - N/A Snow Light Snow
6:00 PM 21.2 °F - 19.4 °F 93% 29.73 in 10.0 mi Calm Calm - N/A Snow Light Snow
7:00 PM 21.2 °F - 19.4 °F 93% 29.71 in 6.0 mi Calm Calm - N/A Snow Light Snow
7:42 PM 21.2 °F - 19.4 °F 93% 29.69 in 2.0 mi Calm Calm - N/A Snow Light Snow
8:00 PM 21.2 °F - 19.4 °F 93% 29.69 in 3.0 mi Calm Calm - N/A Snow Light Snow
9:00 PM 24.8 °F 15.3 °F 23.0 °F 93% 29.65 in 3.0 mi WSW 9.2 mph - N/A Snow Light Snow
10:00 PM 26.6 °F 16.8 °F 24.8 °F 93% 29.64 in 3.0 mi WSW 10.4 mph - N/A Snow Light Snow
11:00 PM 26.6 °F 19.1 °F 24.8 °F 93% 29.64 in 8.0 mi WSW 6.9 mph - N/A Snow Light Snow